Location: Bussy-Saint-Georges
(48.8410°N, 2.7017°E)
Time: 22:48:39
(UTC+00:00)

BREEZE-M DEB (TANK) - Pass Details

Date: 18 October 2021
Orbit: 355 x 14883 km, 49.5° (Epoch: 06 December)

Event Time Altitude Azimuth Distance (km) Brightness Sun altitude
Rises 19:30:48 0° 271° (W) 7,770 10.3 -26.4°
Reaches altitude 10° 19:38:02 10° 273° (W) 4,878 9.0 -27.6°
Enters shadow 19:47:31 77° 300° (WNW) 851 4.2 -29.1°
